User: anonymous   Login
Location: Poughquag
(41.6090°N, 73.6820°W)
Time: 12:37:02
(UTC-04:00)
Language:

First-Move - Orbit

View from above orbital plane
View from above orbital plane
View from above satellite
View from above satellite

Ground track
Ground track

The orbit data is extracted from the following two-line orbital elements,

1 39439U 13066Z   24199.88451152  .00027961  00000-0  21388-2 0  9992
2 39439  97.7167 163.2304 0043325  38.1213 322.3062 15.01109514575485
Epoch (UTC): 17 July 2024 21:13:41
Eccentricity: 0.0043325
inclination: 97.7167°
perigee height: 533 km
apogee height: 593 km
right ascension of ascending node: 163.2304°
argument of perigee: 38.1213°
revolutions per day: 15.01109514
mean anomaly at epoch: 322.3062°
orbit number at epoch: 57548

The dashed part of the orbit path shows where the satellite is in the earth's shadow,  

DLR